Location: Chervonnoye
(48.6000°N, 34.4000°E)
Time: 19:11:46
(UTC+00:00)

N. Korean satellite - Pass Details

Date: 28 September 2021
Orbit: 450 x 495 km, 97.3° (Epoch: 16 October)

Event Time Altitude Azimuth Distance (km) Brightness Sun altitude
Rises 02:06:00 0° 28° (NNE) 2,536 10.9 -15.8°
Reaches altitude 10° 02:08:36 10° 49° (NE) 1,662 10.3 -15.4°
Maximum altitude 02:11:02 17° 92° (E) 1,279 9.7 -15.0°
Drops below altitude 10° 02:13:29 10° 135° (SE) 1,668 9.7 -14.6°
Sets 02:16:06 0° 156° (SSE) 2,551 10.4 -14.2°
